GW1454 Weather Reports


time (UTC)temp
C
wind
direction
speed
KPH
gust
KPH
rain 1hr
cm
rain 24hr
cm
rain mn
cm
humidity
%
barometer
mb
20260906103547 21 0 0.0 0.0 0.00 0.74 0.03 97 1013.4
20260906103055 21 0 0.0 4.8 0.00 0.74 0.03 98 1013.5
20260906102546 21 0 0.0 4.8 0.00 0.74 0.03 98 1013.3
20260906102044 21 159 0.0 3.2 0.00 0.74 0.03 98 1013.2
20260906101553 21 256 0.0 0.0 0.00 0.74 0.03 97 1013.3
20260906101045 21 0 0.0 0.0 0.00 0.74 0.03 97 1013.2
20260906100545 21 0 0.0 0.0 0.00 0.74 0.03 97 1013.0
20260906100105 21 0 0.0 0.0 0.00 0.74 0.03 98 1013.0
20260906095545 21 0 0.0 0.0 0.00 0.74 0.03 98 1012.9
20260906095046 21 0 0.0 0.0 0.00 0.74 0.03 98 1012.9
20260906094558 21 0 0.0 1.6 0.00 0.74 0.03 98 1012.9
20260906094045 21 0 0.0 1.6 0.00 0.74 0.03 98 1012.9
20260906093546 21 0 0.0 6.4 0.00 0.74 0.03 98 1012.8
20260906093113 21 0 0.0 6.4 0.00 0.74 0.03 98 1012.8
20260906092545 21 0 0.0 8.0 0.00 0.74 0.03 98 1012.8
20260906092046 21 0 1.6 8.0 0.00 0.74 0.03 98 1012.7
20260906091606 20 196 0.0 1.6 0.00 0.74 0.03 98 1012.6
20260906091045 20 0 0.0 0.0 0.00 0.74 0.03 98 1012.5
20260906090545 20 0 0.0 0.0 0.00 0.74 0.03 97 1012.5
20260906085543 20 0 0.0 0.0 0.00 0.74 0.03 97 1012.3
20260906085050 20 0 0.0 0.0 0.00 0.74 0.03 97 1012.3
20260906084605 20 0 0.0 0.0 0.00 0.74 0.03 97 1012.1
20260906084045 20 0 0.0 0.0 0.03 0.74 0.03 97 1012.3
20260906083546 20 0 0.0 0.0 0.03 0.74 0.03 97 1012.3
20260906083104 20 0 0.0 0.0 0.03 0.74 0.03 97 1012.3
20260906082544 20 0 0.0 0.0 0.03 0.74 0.03 97 1012.1
20260906082045 20 0 0.0 0.0 0.03 0.74 0.03 97 1012.2
20260906081604 20 0 0.0 0.0 0.03 0.74 0.03 97 1012.2
20260906081045 20 0 0.0 0.0 0.03 0.74 0.03 97 1012.0
20260906080547 20 0 0.0 0.0 0.03 0.74 0.03 96 1011.9
20260906080109 20 0 0.0 0.0 0.03 0.74 0.03 97 1011.9
20260906075545 20 0 0.0 0.0 0.03 0.74 0.03 97 1011.8
20260906075045 20 0 0.0 0.0 0.03 0.74 0.03 97 1011.8
20260906074606 20 0 0.0 0.0 0.03 0.74 0.03 97 1011.9
20260906074044 20 0 0.0 0.0 0.00 0.71 0.00 96 1011.8
20260906073547 20 0 0.0 0.0 0.00 0.71 0.00 96 1011.9
20260906073105 20 0 0.0 0.0 0.00 0.71 0.00 96 1011.9
20260906072545 20 0 0.0 0.0 0.00 0.71 0.00 96 1012.0
20260906072044 20 0 0.0 0.0 0.00 0.71 0.00 96 1011.9
20260906071606 20 0 0.0 0.0 0.00 0.71 0.00 96 1012.1
20260906071045 20 0 0.0 0.0 0.00 0.71 0.00 96 1012.1
20260906070547 20 0 0.0 0.0 0.00 0.71 0.00 96 1012.2
20260906070110 20 0 0.0 0.0 0.00 0.71 0.00 96 1012.2
20260906065545 20 0 0.0 0.0 0.00 0.71 0.00 96 1012.3
20260906065045 20 0 0.0 0.0 0.00 0.71 0.00 96 1012.3
20260906064606 20 0 0.0 0.0 0.00 0.71 0.00 96 1012.3
20260906064044 20 0 0.0 0.0 0.00 0.71 0.00 96 1012.3
20260906063546 20 0 0.0 0.0 0.00 0.71 0.00 96 1012.3
20260906063110 20 0 0.0 0.0 0.00 0.71 0.00 96 1012.3
20260906062544 20 0 0.0 0.0 0.00 0.71 0.00 96 1012.3
20260906062044 20 0 0.0 0.0 0.00 0.71 0.00 96 1012.3
20260906061606 20 0 0.0 0.0 0.00 0.71 0.00 96 1012.4
20260906061045 20 0 0.0 0.0 0.00 0.71 0.00 96 1012.3
20260906060547 20 0 0.0 0.0 0.00 0.71 0.00 96 1012.3
20260906060105 20 0 0.0 0.0 0.00 0.71 0.00 96 1012.4
20260906055545 20 0 0.0 0.0 0.00 0.71 0.00 96 1012.5
20260906055045 20 0 0.0 0.0 0.00 0.71 0.00 96 1012.6
20260906054606 20 0 0.0 0.0 0.00 0.71 0.00 96 1012.4
20260906054046 20 0 0.0 0.0 0.00 0.71 0.00 96 1012.5
20260906053545 20 0 0.0 0.0 0.00 0.71 0.00 95 1012.5
20260906053056 20 0 0.0 0.0 0.00 0.71 0.00 95 1012.4
20260906052546 21 0 0.0 0.0 0.00 0.71 0.00 95 1012.5
20260906052046 21 0 0.0 0.0 0.00 0.71 0.00 96 1012.5
20260906051553 21 0 0.0 0.0 0.00 0.71 0.00 95 1012.6
20260906051047 21 0 0.0 0.0 0.00 0.71 0.00 95 1012.7
20260906050548 21 0 0.0 0.0 0.00 0.71 0.00 95 1012.6
20260906050123 21 0 0.0 0.0 0.00 0.71 0.00 95 1012.6
20260906045545 21 0 0.0 0.0 0.00 0.71 0.00 95 1012.8
20260906045045 21 0 0.0 0.0 0.00 0.71 0.00 95 1012.6
20260906044555 21 0 0.0 0.0 0.00 0.71 0.00 95 1012.7
20260906044045 21 0 0.0 0.0 0.00 0.71 0.00 95 1012.8
20260906043544 21 0 0.0 0.0 0.00 0.71 0.00 95 1012.9
20260906043056 21 0 0.0 0.0 0.00 0.71 0.00 95 1012.9
20260906042545 21 0 0.0 0.0 0.00 0.71 0.00 95 1013.0
20260906042046 21 0 0.0 0.0 0.00 0.71 0.00 95 1013.2
20260906041604 21 0 0.0 0.0 0.00 0.71 0.00 95 1013.1
20260906041046 21 0 0.0 0.0 0.00 0.71 0.00 95 1013.1
20260906040545 21 0 0.0 0.0 0.00 0.71 0.00 95 1013.0
20260906040128 21 0 0.0 4.8 0.00 0.71 0.00 95 1013.0
20260906035546 21 0 0.0 4.8 0.00 0.71 0.71 95 1013.1
20260906035046 21 0 0.0 6.4 0.00 0.71 0.71 96 1013.2
20260906034555 21 0 0.0 6.4 0.00 0.71 0.71 96 1013.2
20260906034046 21 0 1.6 6.4 0.00 0.71 0.71 96 1013.1
20260906033545 21 0 0.0 0.0 0.00 0.71 0.71 96 1013.0
20260906033105 21 0 0.0 0.0 0.00 0.71 0.71 96 1013.0
20260906032549 21 0 0.0 0.0 0.00 0.71 0.71 96 1012.9
20260906032045 21 0 0.0 0.0 0.00 0.71 0.71 96 1012.9
20260906031602 21 0 0.0 0.0 0.00 0.71 0.71 96 1012.9
20260906031045 21 0 0.0 0.0 0.00 0.71 0.71 96 1012.8
20260906030545 21 0 0.0 0.0 0.00 0.71 0.71 96 1012.9
20260906030059 21 0 0.0 0.0 0.00 0.71 0.71 96 1012.8
20260906025546 21 0 0.0 0.0 0.00 0.71 0.71 96 1012.7
20260906025046 21 0 0.0 0.0 0.00 0.71 0.71 96 1012.8
20260906024618 21 0 0.0 0.0 0.00 0.71 0.71 95 1012.8
20260906024046 21 0 0.0 0.0 0.00 0.71 0.71 95 1012.7
20260906023546 21 0 0.0 0.0 0.00 0.71 0.71 95 1012.6
20260906023104 21 0 0.0 0.0 0.00 0.71 0.71 95 1012.5
20260906022545 21 0 0.0 0.0 0.00 0.71 0.71 95 1012.7
20260906022045 21 0 0.0 0.0 0.00 0.71 0.71 95 1012.5
20260906021603 21 0 0.0 0.0 0.00 0.71 0.71 95 1012.4
20260906021045 21 0 0.0 0.0 0.00 0.71 0.71 95 1012.6
20260906020548 21 0 0.0 0.0 0.00 0.71 0.71 95 1012.7
20260906020105 21 0 0.0 0.0 0.00 0.71 0.71 95 1012.7
20260906015545 21 0 0.0 0.0 0.00 0.71 0.71 95 1012.7
20260906015046 21 0 0.0 0.0 0.00 0.71 0.71 94 1012.5
20260906014611 21 0 0.0 0.0 0.00 0.71 0.71 95 1012.5
20260906014045 21 0 0.0 0.0 0.00 0.71 0.71 94 1012.5
20260906013545 21 0 0.0 0.0 0.00 0.71 0.71 94 1012.5
20260906013105 21 0 0.0 0.0 0.00 0.71 0.71 94 1012.5
20260906012547 21 0 0.0 0.0 0.00 0.71 0.71 94 1012.4
20260906012044 21 0 0.0 0.0 0.00 0.71 0.71 94 1012.2
20260906011602 21 0 0.0 0.0 0.00 0.71 0.71 93 1012.1
20260906011045 21 0 0.0 0.0 0.00 0.71 0.71 93 1012.3
20260906010545 21 0 0.0 0.0 0.00 0.71 0.71 93 1012.3
20260906010054 21 0 0.0 0.0 0.00 0.71 0.71 93 1012.3
20260906005546 21 0 0.0 0.0 0.00 0.71 0.71 93 1012.3
20260906005045 21 0 0.0 0.0 0.00 0.71 0.71 93 1012.3
20260906004601 21 0 0.0 0.0 0.00 0.71 0.71 92 1012.2
20260906004045 21 0 0.0 0.0 0.00 0.71 0.71 92 1012.2
20260906003545 21 0 0.0 0.0 0.00 0.71 0.71 92 1012.0
20260906003105 22 0 0.0 0.0 0.00 0.71 0.71 92 1012.1
20260906002546 22 0 0.0 0.0 0.00 0.71 0.71 91 1012.1
20260906002047 22 0 0.0 0.0 0.00 0.71 0.71 91 1012.1
20260906001553 22 0 0.0 0.0 0.00 0.71 0.71 91 1012.0
20260906001046 22 0 0.0 0.0 0.00 0.71 0.71 91 1012.0
20260906000545 22 0 0.0 0.0 0.00 0.71 0.71 90 1011.9
20260905235549 22 0 0.0 0.0 0.00 0.71 0.71 90 1011.9
20260905235045 22 0 0.0 0.0 0.00 0.71 0.71 90 1011.7
20260905234612 23 0 0.0 0.0 0.00 0.71 0.71 89 1011.7
20260905234048 23 0 0.0 0.0 0.00 0.71 0.71 89 1011.5
20260905233546 23 0 0.0 1.6 0.00 0.71 0.71 87 1011.3
20260905233054 23 0 0.0 1.6 0.00 0.71 0.71 88 1011.5
20260905232545 23 0 0.0 1.6 0.00 0.71 0.71 87 1011.4
20260905232046 23 0 0.0 3.2 0.00 0.71 0.71 87 1011.4
20260905231557 23 0 0.0 3.2 0.00 0.71 0.71 86 1011.3
20260905231045 24 0 0.0 1.6 0.00 0.71 0.71 86 1011.3
20260905230545 24 0 0.0 3.2 0.00 0.71 0.71 85 1011.2
20260905230130 25 0 0.0 3.2 0.00 0.71 0.71 84 1011.2
20260905225547 25 0 0.0 1.6 0.00 0.71 0.71 83 1011.3
20260905225045 25 0 0.0 3.2 0.00 0.71 0.71 82 1011.5
20260905224556 25 0 0.0 3.2 0.00 0.71 0.71 82 1011.5
20260905224046 25 0 0.0 3.2 0.00 0.71 0.71 81 1011.5
20260905223545 25 0 0.0 3.2 0.00 0.71 0.71 79 1011.5
20260905223109 25 0 0.0 3.2 0.00 0.71 0.71 79 1011.6
20260905222546 26 104 0.0 3.2 0.00 0.71 0.71 80 1011.6
20260905222045 25 0 0.0 3.2 0.00 0.71 0.71 80 1011.6
20260905221556 25 140 0.0 3.2 0.00 0.71 0.71 81 1011.8
20260905221048 25 0 0.0 3.2 0.00 0.71 0.71 81 1011.7
20260905220545 25 145 0.0 3.2 0.00 0.71 0.71 82 1012.0
20260905220052 24 0 0.0 3.2 0.00 0.71 0.71 83 1012.0
20260905215545 24 145 1.6 4.8 0.00 0.71 0.71 82 1011.9
20260905215047 25 142 1.6 4.8 0.00 0.71 0.71 83 1012.0
20260905214559 25 126 0.0 3.2 0.00 0.71 0.71 85 1012.0
20260905214045 24 0 0.0 3.2 0.00 0.71 0.71 86 1012.0
20260905213546 24 0 0.0 1.6 0.00 0.71 0.71 86 1012.0
20260905213103 24 0 0.0 1.6 0.00 0.71 0.71 86 1012.0
20260905212545 24 0 0.0 1.6 0.00 0.71 0.71 87 1012.2
20260905212045 24 0 0.0 3.2 0.00 0.71 0.71 86 1012.1
20260905211605 24 110 0.0 4.8 0.00 0.71 0.71 86 1012.3
20260905211045 24 0 0.0 8.0 0.00 0.71 0.71 85 1012.1
20260905210545 25 0 3.2 8.0 0.00 0.71 0.71 84 1012.4
20260905210058 25 66 1.6 8.0 0.00 0.71 0.71 86 1012.4
20260905205545 25 82 1.6 8.0 0.00 0.71 0.71 85 1012.5
20260905205046 24 69 1.6 8.0 0.00 0.71 0.71 89 1012.3
20260905204605 23 76 0.0 9.7 0.00 0.71 0.71 90 1012.3
20260905204045 23 133 3.2 9.7 0.00 0.71 0.71 92 1012.1
20260905203548 23 0 0.0 6.4 0.00 0.71 0.71 94 1012.0
20260905203102 23 0 0.0 0.0 0.00 0.71 0.71 94 1011.6
20260905202545 22 0 0.0 3.2 0.00 0.71 0.71 95 1011.4
20260905202046 22 0 0.0 3.2 0.00 0.71 0.71 95 1011.2
20260905201555 22 217 0.0 3.2 0.00 0.71 0.71 94 1011.3
20260905201046 22 0 0.0 1.6 0.00 0.71 0.71 95 1011.7
20260905200545 22 0 0.0 1.6 0.00 0.71 0.71 95 1011.9
20260905200109 22 113 0.0 1.6 0.00 0.71 0.71 95 1011.9
20260905195546 22 0 0.0 0.0 0.00 0.71 0.71 95 1012.2
20260905195049 22 0 0.0 0.0 0.00 0.71 0.71 95 1012.5
20260905194602 21 0 0.0 0.0 0.00 0.71 0.71 95 1012.3
20260905194045 21 0 0.0 0.0 0.00 0.71 0.71 95 1012.4
20260905193544 21 0 0.0 0.0 0.13 0.71 0.71 94 1012.6
20260905193114 21 0 0.0 1.6 0.71 0.71 0.71 94 1012.5
20260905192547 21 0 0.0 3.2 0.71 0.71 0.71 93 1012.3
20260905192048 21 159 1.6 3.2 0.71 0.71 0.71 93 1012.4
20260905191605 21 0 1.6 6.4 0.71 0.71 0.71 93 1012.1
20260905191045 21 23 0.0 6.4 0.71 0.71 0.71 93 1012.1
20260905190546 21 277 3.2 4.8 0.71 0.71 0.71 93 1012.0
20260905185546 21 0 0.0 4.8 0.71 0.71 0.71 90 1011.5
20260905185045 21 110 0.0 6.4 0.71 0.71 0.71 89 1011.8
20260905184604 22 0 1.6 19.3 0.71 0.71 0.71 86 1012.3
20260905184045 23 96 3.2 35.4 0.71 0.71 0.71 83 1012.2
20260905183546 25 284 9.7 38.6 0.53 0.53 0.53 77 1012.9
20260905183058 30 133 11.3 38.6 0.00 0.00 0.00 65 1012.8
20260905182545 31 0 0.0 1.6 0.00 0.00 0.00 66 1011.6
20260905182046 32 0 0.0 3.2 0.00 0.00 0.00 65 1011.5
20260905181552 32 0 0.0 4.8 0.00 0.00 0.00 62 1011.8
20260905181050 32 0 0.0 6.4 0.00 0.00 0.00 59 1011.7
20260905180546 33 167 0.0 9.7 0.00 0.00 0.00 59 1011.8
20260905175545 34 94 3.2 12.9 0.00 0.00 0.00 56 1012.3
20260905175045 34 51 1.6 12.9 0.00 0.00 0.00 56 1012.2
20260905174605 34 157 1.6 6.4 0.00 0.00 0.00 57 1012.1
20260905174046 33 0 1.6 11.3 0.00 0.00 0.00 57 1012.1
20260905173546 34 136 1.6 11.3 0.00 0.00 0.00 56 1012.2
20260905173105 34 102 1.6 12.9 0.00 0.00 0.00 56 1012.4
20260905172555 34 179 4.8 12.9 0.00 0.00 0.00 55 1012.6
20260905172046 33 142 0.0 12.9 0.00 0.00 0.00 58 1012.8
20260905171554 33 73 4.8 12.9 0.00 0.00 0.00 57 1012.8
20260905171045 33 0 4.8 12.9 0.00 0.00 0.00 58 1013.0
20260905170545 33 120 6.4 12.9 0.00 0.00 0.00 58 1013.1
20260905165546 33 67 3.2 12.9 0.00 0.00 0.00 59 1013.2
20260905165045 32 132 4.8 12.9 0.00 0.00 0.00 61 1013.3
20260905164554 33 209 4.8 12.9 0.00 0.00 0.00 60 1013.2
20260905164046 33 119 4.8 12.9 0.00 0.00 0.00 59 1013.3
20260905163545 33 104 3.2 9.7 0.00 0.00 0.00 61 1013.2
20260905163056 33 124 3.2 9.7 0.00 0.00 0.00 60 1013.4
20260905162549 33 243 3.2 11.3 0.00 0.00 0.00 60 1013.4
20260905162047 33 0 3.2 11.3 0.00 0.00 0.00 61 1013.5
20260905161552 32 109 1.6 8.0 0.00 0.00 0.00 62 1013.6
20260905161045 32 182 1.6 11.3 0.00 0.00 0.00 63 1013.6
20260905160546 32 160 4.8 11.3 0.00 0.00 0.00 62 1013.6
20260905160104 32 184 1.6 9.7 0.00 0.00 0.00 63 1013.7
20260905155546 32 91 1.6 9.7 0.00 0.00 0.00 63 1013.7
20260905155044 32 99 1.6 12.9 0.00 0.00 0.00 62 1013.8
20260905154606 32 0 1.6 14.5 0.00 0.00 0.00 63 1013.8
20260905154049 31 70 3.2 14.5 0.00 0.00 0.00 63 1013.9
20260905153546 31 68 3.2 14.5 0.00 0.00 0.00 63 1013.9
20260905153053 31 144 1.6 14.5 0.00 0.00 0.00 64 1013.9
20260905152545 31 101 1.6 11.3 0.00 0.00 0.00 65 1013.8
20260905152045 31 164 3.2 14.5 0.00 0.00 0.00 66 1013.8
20260905151559 31 96 3.2 14.5 0.00 0.00 0.00 67 1013.9
20260905151045 31 67 3.2 14.5 0.00 0.00 0.00 66 1014.0
20260905150548 31 55 4.8 14.5 0.00 0.00 0.00 66 1014.0
20260905150105 30 0 3.2 14.5 0.00 0.00 0.00 67 1014.1
20260905145545 30 127 3.2 12.9 0.00 0.00 0.00 68 1014.2
20260905145045 30 0 1.6 12.9 0.00 0.00 0.00 70 1014.2
20260905144552 30 144 3.2 12.9 0.00 0.00 0.00 70 1014.2
20260905144046 30 126 4.8 9.7 0.00 0.00 0.00 70 1014.3
20260905143546 30 146 1.6 8.0 0.00 0.00 0.00 71 1014.2
20260905143105 30 111 1.6 8.0 0.00 0.00 0.00 72 1014.1
20260905142545 29 84 0.0 8.0 0.00 0.00 0.00 71 1014.1
20260905142045 29 55 3.2 6.4 0.00 0.00 0.00 72 1014.1
20260905141603 29 0 0.0 9.7 0.00 0.00 0.00 74 1014.0
20260905141045 29 92 1.6 9.7 0.00 0.00 0.00 73 1014.0
20260905140546 29 109 3.2 6.4 0.00 0.00 0.00 72 1013.9
20260905140104 28 124 0.0 6.4 0.00 0.00 0.00 73 1014.0
20260905135545 28 107 1.6 6.4 0.00 0.00 0.00 73 1013.9
20260905135044 28 80 3.2 6.4 0.00 0.00 0.00 75 1013.9
20260905134601 28 82 0.0 4.8 0.00 0.00 0.00 76 1013.9
20260905134046 28 99 0.0 6.4 0.00 0.00 0.00 77 1013.8
20260905133545 27 103 1.6 6.4 0.00 0.00 0.00 77 1014.1
20260905133056 27 81 0.0 6.4 0.00 0.00 0.00 78 1014.0
20260905132547 27 0 1.6 6.4 0.00 0.00 0.00 80 1013.9
20260905132046 26 0 1.6 3.2 0.00 0.00 0.00 81 1014.0
20260905131602 26 126 0.0 3.2 0.00 0.00 0.00 81 1014.2
20260905131046 26 0 0.0 1.6 0.00 0.00 0.00 80 1014.1
20260905130546 26 0 0.0 0.0 0.00 0.00 0.00 83 1014.2
20260905125545 26 0 0.0 1.6 0.00 0.00 0.00 82 1014.3
20260905125046 26 0 0.0 1.6 0.00 0.00 0.00 82 1014.3
20260905124603 26 0 0.0 0.0 0.00 0.00 0.00 83 1014.4
20260905124046 25 0 0.0 0.0 0.00 0.00 0.00 84 1014.5
20260905123545 25 0 0.0 0.0 0.00 0.00 0.00 86 1014.5
20260905123058 24 0 0.0 0.0 0.00 0.00 0.00 87 1014.3
20260905122547 24 0 0.0 0.0 0.00 0.00 0.00 88 1014.4
20260905122047 23 0 0.0 1.6 0.00 0.00 0.00 90 1014.4
20260905121600 23 0 0.0 1.6 0.00 0.00 0.00 91 1014.5
20260905121046 22 0 0.0 1.6 0.00 0.00 0.00 92 1014.3
20260905120546 22 0 0.0 0.0 0.00 0.00 0.00 94 1014.4
20260905120105 22 0 0.0 0.0 0.00 0.00 0.00 95 1014.4
20260905115548 21 0 0.0 0.0 0.00 0.00 0.00 95 1014.3
20260905115046 21 0 0.0 0.0 0.00 0.00 0.00 96 1014.3
20260905114602 21 0 0.0 0.0 0.00 0.00 0.00 96 1014.2
20260905114045 21 0 0.0 0.0 0.00 0.00 0.00 96 1014.1
20260905113545 20 0 0.0 0.0 0.00 0.00 0.00 96 1014.0
20260905113109 20 0 0.0 0.0 0.00 0.00 0.00 95 1014.0
20260905112546 20 0 0.0 0.0 0.00 0.00 0.00 95 1013.9
20260905112046 20 0 0.0 0.0 0.00 0.00 0.00 95 1013.9
20260905111554 20 0 0.0 0.0 0.00 0.00 0.00 95 1013.7
20260905111046 20 0 0.0 0.0 0.00 0.00 0.00 95 1013.8
20260905110545 20 0 0.0 0.0 0.00 0.00 0.00 95 1013.8
20260905105545 20 0 0.0 0.0 0.00 0.00 0.00 95 1013.7
20260905105049 20 0 0.0 0.0 0.00 0.00 0.00 95 1013.6
20260905104559 20 0 0.0 0.0 0.00 0.00 0.00 95 1013.5
20260905104045 20 0 0.0 0.0 0.00 0.00 0.00 95 1013.5